Location: Moscow
(30.9132°N, 94.8252°W)
Time: 06:12:15
(UTC+00:00)

In-Cosmos 22 Rocket - Pass Details

Date: 15 November 2025
Orbit: 789 x 886 km, 81.2° (Epoch: 04 December)

Event Time Altitude Azimuth Distance (km) Brightness Sun altitude
Rises 11:04:32 0° 183° (S) 3,462 7.5 -21.9°
Reaches altitude 10° 11:06:58 10° 181° (S) 2,532 6.8 -21.3°
Maximum altitude 11:12:45 79° 96° (E) 905 4.4 -20.1°
Drops below altitude 10° 11:18:34 10° 11° (N) 2,546 6.7 -18.9°
Sets 11:21:00 0° 10° (N) 3,481 7.4 -18.4°
